TimeCDT,TemperatureF,Dew PointF,Humidity,Sea Level PressureIn,VisibilityMPH,Wind Direction,Wind SpeedMPH,Gust SpeedMPH,PrecipitationIn,Events,Conditions,WindDirDegrees,DateUTC
12:53 AM,57.0,52.0,83,30.13,10.0,Calm,Calm,-,N/A,,Clear,0,2012-09-29 05:53:00
1:53 AM,55.9,51.1,84,30.13,10.0,Calm,Calm,-,N/A,,Clear,0,2012-09-29 06:53:00
2:37 AM,57.2,51.8,82,30.15,10.0,Calm,Calm,-,N/A,,Mostly Cloudy,0,2012-09-29 07:37:00
2:53 AM,57.0,52.0,83,30.13,10.0,Calm,Calm,-,N/A,,Scattered Clouds,0,2012-09-29 07:53:00
3:53 AM,55.0,52.0,89,30.13,9.0,North,3.5,-,N/A,,Clear,350,2012-09-29 08:53:00
4:53 AM,54.0,51.1,90,30.12,7.0,NW,3.5,-,N/A,,Clear,320,2012-09-29 09:53:00
5:48 AM,53.6,51.8,94,30.14,7.0,Calm,Calm,-,N/A,,Scattered Clouds,0,2012-09-29 10:48:00
5:53 AM,54.0,51.1,90,30.13,7.0,Calm,Calm,-,N/A,,Mostly Cloudy,0,2012-09-29 10:53:00
6:24 AM,53.6,50.0,88,30.15,6.0,North,3.5,-,0.01,,Scattered Clouds,360,2012-09-29 11:24:00
6:53 AM,53.1,50.0,89,30.13,6.0,North,4.6,-,0.01,,Clear,350,2012-09-29 11:53:00
7:53 AM,52.0,50.0,93,30.14,4.0,NNW,3.5,-,N/A,,Clear,340,2012-09-29 12:53:00
8:53 AM,55.9,51.1,84,30.16,6.0,Calm,Calm,-,N/A,,Haze,0,2012-09-29 13:53:00
9:53 AM,61.0,52.0,72,30.16,10.0,NNE,3.5,-,N/A,,Clear,20,2012-09-29 14:53:00
10:53 AM,64.9,52.0,63,30.16,10.0,NE,5.8,-,N/A,,Clear,40,2012-09-29 15:53:00
11:53 AM,69.1,50.0,51,30.14,10.0,East,8.1,-,N/A,,Clear,90,2012-09-29 16:53:00
12:53 PM,71.1,46.0,41,30.13,10.0,ENE,10.4,-,N/A,,Clear,70,2012-09-29 17:53:00
1:53 PM,72.0,44.1,37,30.10,10.0,ENE,6.9,-,N/A,,Clear,70,2012-09-29 18:53:00
2:53 PM,73.0,46.0,38,30.08,10.0,East,8.1,-,N/A,,Clear,90,2012-09-29 19:53:00
3:53 PM,72.0,44.1,37,30.06,10.0,ENE,5.8,-,N/A,,Clear,60,2012-09-29 20:53:00
4:53 PM,72.0,43.0,35,30.05,10.0,ENE,5.8,-,N/A,,Clear,70,2012-09-29 21:53:00
5:53 PM,71.1,44.1,38,30.05,10.0,NE,5.8,-,N/A,,Clear,50,2012-09-29 22:53:00
6:53 PM,70.0,46.0,42,30.05,10.0,NE,4.6,-,N/A,,Clear,50,2012-09-29 23:53:00
7:53 PM,68.0,46.0,45,30.04,10.0,Calm,Calm,-,N/A,,Clear,0,2012-09-30 00:53:00
8:53 PM,64.0,48.9,58,30.05,10.0,Calm,Calm,-,N/A,,Clear,0,2012-09-30 01:53:00
9:53 PM,63.0,48.9,60,30.05,10.0,Calm,Calm,-,N/A,,Clear,0,2012-09-30 02:53:00
10:53 PM,59.0,51.1,75,30.06,10.0,SW,3.5,-,N/A,,Clear,220,2012-09-30 03:53:00
11:53 PM,60.1,50.0,69,30.05,10.0,Calm,Calm,-,N/A,,Clear,0,2012-09-30 04:53:00